Wind_Speed
5 5 5 5 5 5 5 6 8 9 10 12 13 14 15 17 17 18 19 19 19 18 18 18 17 17 16 16 15 16 17 18 19 21 22 24 26 27 27 28 29 29 28
5 5 5 5 5 5 6 7 8 9 10 12 13 14 15 17 17 18 19 19 19 19 18 18 17 16 15 14 13 14 14 16 17 19 21 22 24 26 27 27 28 29 29
4 5 5 5 6 6 7 7 8 9 10 12 13 14 15 17 17 18 19 19 19 19 18 18 17 16 14 13 12 11 12 14 15 17 19 20 22 25 26 27 28 29 29
4 5 6 6 6 6 7 7 8 9 10 12 13 14 15 17 17 18 19 19 19 19 18 18 16 14 13 11 10 9 10 11 13 15 17 19 21 23 25 26 27 29 29
4 5 5 6 6 6 7 7 8 9 10 12 13 14 15 16 17 18 18 18 19 18 17 17 16 14 12 11 9 8 8 9 11 14 16 17 19 21 23 25 26 27 29
4 5 5 6 6 7 7 7 8 9 10 11 13 14 15 16 16 17 18 18 18 18 17 16 15 14 12 10 8 7 7 8 10 12 14 16 18 20 21 23 25 26 27
5 6 6 6 7 7 8 8 8 9 10 11 13 14 15 16 16 16 17 17 17 17 17 16 15 14 13 11 9 7 6 6 7 9 12 14 16 18 19 20 22 23 25
6 7 7 8 8 8 8 9 9 10 10 11 12 13 15 15 15 16 16 16 17 17 16 16 14 13 12 11 9 7 5 4 5 7 9 11 13 15 17 18 19 21 23
7 8 8 8 9 9 9 10 10 10 11 12 12 13 14 15 15 15 15 16 16 16 16 15 14 13 11 10 9 7 5 3 2 4 6 9 11 13 15 16 18 19 21
9 10 10 10 10 10 11 11 11 11 12 12 13 13 14 14 14 15 15 15 15 15 15 14 14 13 12 10 8 7 5 3 2 3 5 7 9 12 13 15 16 18 19
11 11 11 11 12 12 13 12 12 13 13 13 13 14 14 14 14 14 15 15 14 14 14 14 13 13 11 10 8 7 5 4 2 2 4 6 8 10 12 14 16 17 18
12 13 13 13 14 14 15 15 14 14 14 14 14 14 14 14 14 14 14 14 14 14 14 13 12 12 11 10 9 7 6 4 2 2 4 5 7 8 10 12 14 15 15
13 14 14 15 15 16 16 16 16 16 16 16 16 15 15 15 15 14 14 13 13 13 13 13 12 11 11 10 9 8 6 5 3 2 3 4 5 8 9 11 12 14 14
14 15 16 16 17 17 17 18 18 18 18 18 18 17 17 16 15 15 15 14 13 13 13 12 12 11 10 9 8 7 6 5 4 3 2 3 4 6 8 9 10 12 13
16 17 17 18 19 19 19 19 19 19 19 19 19 19 19 18 17 16 16 15 14 13 13 12 12 11 10 9 8 7 6 5 4 3 3 3 4 5 7 9 9 11 12
19 19 19 20 20 21 21 21 21 21 21 21 21 21 20 19 19 18 17 16 15 14 14 13 12 11 10 9 8 7 6 5 4 3 3 3 4 5 7 8 9 10 12
22 22 23 23 23 23 23 23 24 23 23 23 23 23 22 21 21 20 19 18 17 16 15 14 13 12 11 10 8 7 7 6 5 4 4 4 4 5 6 7 9 10 11
24 25 25 26 26 26 26 27 27 26 26 26 26 25 25 24 23 22 21 20 19 18 17 16 15 14 13 11 10 9 7 7 6 5 5 5 5 6 6 7 8 9 10
28 29 29 30 30 30 30 30 30 30 29 29 29 28 28 27 26 25 24 23 22 21 20 18 17 16 15 13 12 11 10 9 8 7 7 6 6 7 7 8 8 9 10
33 33 34 34 34 34 34 33 33 33 33 32 32 31 30 30 29 28 27 25 25 24 22 21 20 18 17 16 15 13 12 11 11 10 10 9 9 9 9 9 9 10 11
36 37 38 38 38 38 37 36 36 36 36 35 34 34 33 32 32 31 30 29 27 26 25 24 22 21 20 19 18 17 16 14 13 13 12 12 11 11 10 11 11 12 12
41 41 41 41 42 42 41 40 39 39 39 39 37 36 36 36 34 34 33 32 31 29 28 26 25 24 23 22 20 20 19 18 17 16 15 15 14 14 13 13 13 14 14
44 44 44 44 44 44 44 43 42 41 41 41 40 40 39 39 38 37 36 35 34 32 31 29 28 27 26 24 23 22 21 21 20 19 18 17 17 16 16 16 16 16 16
47 47 47 47 46 46 46 46 45 45 44 44 43 42 42 42 41 40 39 38 37 35 34 32 31 30 29 27 26 25 24 23 23 22 21 20 19 19 18 18 18 18 19
49 49 49 49 48 48 47 48 47 47 46 45 45 44 44 44 43 42 42 41 39 38 37 35 34 32 31 30 29 28 27 26 25 24 23 23 22 21 20 20 20 20 20
51 51 51 51 50 49 49 48 48 48 47 46 45 45 44 44 44 44 44 44 42 41 40 39 37 36 34 33 32 31 30 29 28 27 26 25 24 23 22 22 21 21 21
Wind_Direction
243 242 245 258 275 288 303 313 323 329 333 337 338 338 340 340 339 338 338 337 334 330 326 323 317 310 301 291 280 270 260 251 244 239 236 233 229 227 223 222 222 220 220
239 242 252 262 277 293 308 318 325 330 334 337 339 340 342 343 342 342 342 340 337 335 332 329 324 317 308 297 286 274 261 248 241 237 234 231 228 226 222 221 220 218 219
253 250 257 265 279 295 308 317 325 331 334 337 339 340 341 343 342 342 342 342 341 339 337 335 330 325 316 303 290 278 262 247 239 235 232 230 227 224 222 219 219 219 218
259 260 265 270 282 294 304 314 325 331 336 338 339 339 341 342 342 342 342 343 343 343 342 342 339 334 328 317 301 285 266 250 240 234 230 229 226 224 221 220 219 218 218
269 269 268 276 284 291 299 309 321 331 336 338 339 340 341 341 342 343 344 345 346 346 346 346 345 341 337 330 317 296 277 255 241 234 230 228 225 225 224 220 217 217 218
273 276 276 277 282 288 294 303 314 325 332 335 337 339 340 341 343 344 345 347 348 349 348 348 348 346 343 339 331 311 286 261 245 236 231 227 224 223 222 221 219 218 217
280 278 284 283 283 288 293 300 307 315 323 329 334 337 340 341 343 346 347 348 350 350 351 352 351 351 349 346 340 330 303 269 251 238 230 228 226 223 223 222 221 219 217
284 282 284 286 287 291 295 299 302 307 314 322 329 334 338 341 343 345 347 348 350 352 353 355 354 353 353 353 350 344 334 288 253 237 229 225 223 221 221 221 221 220 219
286 286 286 286 289 293 295 298 299 302 308 315 322 329 334 339 341 343 345 347 349 350 353 355 356 355 357 357 357 356 350 333 279 237 228 224 223 221 219 219 219 220 219
290 289 287 289 291 291 293 295 296 299 304 309 315 321 328 333 336 338 340 343 346 349 352 355 357 358 357 358 356 355 354 340 295 241 231 225 223 221 218 218 220 221 221
291 290 289 289 290 290 289 290 292 294 298 302 307 313 319 325 329 332 335 339 342 345 348 351 354 357 358 358 356 353 350 342 302 249 231 229 226 221 221 218 220 223 225
294 293 293 293 292 290 289 288 288 290 293 296 300 305 310 315 319 324 329 333 338 341 343 346 350 354 356 355 354 352 350 344 323 271 240 233 225 223 220 218 220 223 226
293 290 290 292 292 291 290 290 289 289 290 292 295 297 301 305 309 314 320 324 329 333 337 340 343 347 352 353 358 356 351 346 335 309 268 247 234 227 221 221 222 225 227
293 289 286 286 287 288 289 290 290 290 290 291 291 292 293 296 300 305 310 314 318 322 326 330 334 338 344 350 353 354 350 346 340 329 301 268 246 232 227 226 226 226 226
295 292 289 287 285 285 286 286 287 288 289 290 289 289 290 291 293 296 299 303 308 311 314 318 322 327 331 334 339 344 341 340 338 328 308 283 253 236 229 227 227 227 227
297 294 292 289 287 285 284 284 284 284 285 287 288 287 286 287 288 289 291 293 296 300 302 305 308 311 316 320 324 328 328 323 322 313 298 284 265 243 237 233 231 230 230
297 294 292 291 289 286 283 281 281 280 281 282 284 284 283 283 283 284 284 285 287 290 292 293 295 297 299 302 306 311 312 307 305 303 294 289 275 259 246 239 236 233 236
298 296 294 292 291 289 286 284 282 280 279 279 279 280 280 280 280 280 279 279 280 282 284 284 285 285 287 289 290 292 295 294 288 287 286 278 273 268 262 253 247 241 239
299 297 295 293 291 289 287 285 283 281 279 277 276 276 277 276 276 276 276 275 274 275 277 278 278 277 277 278 280 280 279 279 278 277 274 271 266 264 261 255 253 251 250
297 297 295 293 292 290 288 286 284 282 280 277 275 274 274 274 274 273 272 271 270 270 271 272 272 272 271 271 271 271 270 270 269 268 266 264 263 262 260 258 258 258 256
296 295 293 291 290 288 287 286 284 281 279 277 275 273 271 271 270 270 270 268 267 266 267 268 267 267 266 266 265 265 265 265 265 264 263 262 260 260 259 259 259 260 260
295 294 293 292 290 288 286 285 283 281 279 276 274 271 270 269 268 267 267 266 265 263 263 263 264 264 263 262 262 262 261 262 262 262 262 261 261 261 261 261 262 263 264
296 295 294 293 290 288 286 284 283 281 278 276 273 270 267 266 265 265 264 263 262 261 260 260 260 261 261 260 260 260 259 260 260 260 260 260 261 261 262 262 263 264 266
296 295 293 292 291 288 286 284 282 280 278 276 273 271 267 265 264 262 261 261 260 259 258 257 257 258 258 258 258 258 258 257 258 258 258 259 260 261 262 263 264 265 266
295 294 293 292 291 288 286 285 283 280 278 276 274 271 268 265 263 261 260 258 258 257 256 256 255 254 255 256 256 256 256 256 256 256 256 258 259 260 261 263 264 265 266
296 295 294 293 291 289 287 285 283 280 278 276 274 271 268 265 262 259 257 256 255 254 253 253 253 252 252 252 253 253 254 254 255 255 256 257 258 260 261 263 265 265 266
Height
5839 5839 5839 5839 5839 5838 5838 5837 5835 5833 5831 5829 5827 5824 5821 5818 5815 5811 5807 5803 5799 5795 5791 5787 5784 5781 5778 5776 5775 5774 5775 5776 5778 5780 5783 5786 5790 5794 5798 5803 5808 5812 5817
5837 5837 5837 5837 5837 5837 5836 5835 5833 5832 5830 5827 5825 5822 5819 5816 5813 5809 5805 5801 5797 5792 5788 5784 5780 5777 5774 5772 5770 5770 5770 5771 5773 5775 5778 5781 5785 5789 5793 5798 5802 5807 5812
5836 5836 5836 5836 5835 5835 5834 5833 5831 5830 5828 5826 5823 5820 5817 5814 5811 5807 5803 5799 5795 5790 5786 5782 5778 5774 5771 5769 5767 5766 5766 5767 5769 5771 5774 5777 5780 5784 5788 5792 5797 5802 5807
5835 5835 5834 5834 5834 5833 5832 5831 5830 5828 5826 5824 5821 5819 5816 5813 5809 5805 5801 5797 5793 5789 5784 5780 5776 5772 5769 5766 5765 5764 5764 5764 5766 5768 5770 5773 5776 5780 5784 5788 5792 5797 5802
5833 5833 5833 5832 5832 5831 5830 5829 5828 5826 5824 5822 5820 5817 5814 5811 5808 5804 5800 5796 5792 5787 5783 5779 5775 5771 5768 5765 5763 5762 5762 5762 5763 5764 5766 5769 5772 5775 5779 5783 5787 5792 5797
5832 5832 5831 5831 5830 5830 5829 5828 5826 5825 5823 5821 5819 5816 5813 5809 5806 5802 5798 5795 5790 5786 5782 5778 5774 5771 5767 5764 5762 5761 5760 5760 5760 5762 5763 5766 5768 5772 5775 5779 5783 5787 5792
5831 5830 5830 5829 5828 5828 5827 5826 5824 5823 5821 5819 5817 5814 5811 5808 5804 5801 5797 5794 5790 5786 5781 5777 5774 5770 5767 5764 5762 5760 5759 5759 5759 5759 5761 5763 5765 5768 5772 5775 5779 5783 5787
5829 5829 5828 5827 5827 5826 5825 5824 5822 5821 5819 5817 5815 5813 5810 5806 5803 5800 5796 5793 5789 5785 5781 5777 5774 5770 5767 5764 5762 5760 5759 5758 5758 5758 5759 5761 5763 5766 5769 5772 5776 5780 5783
5828 5827 5826 5825 5825 5824 5823 5821 5820 5819 5817 5815 5813 5811 5808 5805 5802 5799 5795 5792 5788 5785 5781 5777 5773 5770 5767 5765 5762 5760 5759 5758 5758 5758 5759 5760 5762 5764 5766 5769 5773 5777 5780
5826 5825 5824 5823 5822 5821 5820 5819 5818 5816 5815 5813 5811 5809 5806 5803 5800 5797 5794 5791 5788 5784 5781 5777 5774 5770 5767 5765 5762 5761 5759 5758 5758 5758 5758 5759 5760 5762 5764 5767 5770 5773 5777
5824 5823 5822 5820 5819 5818 5817 5816 5815 5813 5812 5810 5808 5806 5804 5801 5799 5796 5793 5790 5787 5784 5780 5777 5774 5770 5767 5765 5763 5761 5760 5758 5758 5758 5758 5759 5760 5761 5763 5765 5768 5771 5774
5821 5820 5819 5817 5816 5815 5814 5812 5811 5810 5808 5807 5805 5804 5802 5799 5797 5794 5792 5789 5786 5783 5780 5777 5774 5771 5768 5765 5763 5761 5760 5759 5758 5757 5757 5758 5759 5760 5761 5763 5766 5768 5771
5818 5816 5815 5814 5813 5812 5810 5809 5808 5806 5805 5803 5802 5800 5798 5796 5794 5792 5790 5787 5784 5782 5779 5776 5774 5771 5768 5765 5763 5761 5760 5759 5758 5757 5757 5757 5757 5758 5760 5762 5764 5766 5768
5814 5813 5811 5810 5809 5808 5806 5805 5804 5802 5801 5799 5798 5796 5795 5793 5791 5789 5787 5785 5782 5780 5778 5775 5773 5770 5768 5766 5764 5761 5760 5758 5757 5757 5756 5756 5756 5757 5758 5760 5761 5763 5765
5810 5808 5807 5806 5804 5803 5802 5800 5799 5798 5796 5795 5793 5792 5791 5789 5787 5786 5784 5782 5780 5778 5776 5774 5772 5769 5767 5765 5763 5761 5760 5758 5757 5757 5756 5756 5756 5756 5757 5758 5759 5761 5763
5805 5804 5802 5800 5799 5798 5796 5795 5794 5792 5791 5789 5788 5787 5785 5784 5783 5781 5780 5778 5777 5775 5773 5771 5769 5768 5766 5764 5762 5761 5759 5758 5757 5756 5755 5755 5755 5755 5755 5756 5757 5759 5760
5800 5798 5796 5794 5793 5791 5790 5789 5787 5786 5785 5783 5782 5781 5779 5778 5777 5776 5775 5774 5773 5771 5770 5768 5766 5765 5764 5762 5761 5759 5758 5757 5756 5755 5754 5754 5754 5754 5754 5754 5755 5756 5757
5793 5791 5789 5787 5786 5784 5782 5781 5780 5778 5777 5776 5775 5774 5773 5772 5771 5770 5770 5769 5767 5766 5765 5764 5763 5762 5760 5759 5758 5757 5756 5755 5754 5754 5753 5753 5752 5752 5752 5753 5753 5754 5754
5786 5783 5781 5779 5777 5776 5774 5772 5771 5770 5769 5768 5767 5766 5765 5764 5764 5763 5763 5762 5761 5761 5760 5759 5758 5757 5757 5756 5755 5754 5754 5753 5752 5752 5751 5751 5751 5750 5750 5750 5751 5751 5752
5777 5775 5772 5770 5768 5766 5764 5763 5761 5760 5759 5758 5758 5757 5756 5756 5756 5755 5755 5754 5754 5754 5753 5753 5753 5752 5752 5751 5751 5750 5750 5750 5749 5749 5748 5748 5748 5748 5748 5748 5748 5748 5749
5768 5765 5762 5759 5757 5755 5753 5752 5750 5749 5748 5748 5747 5747 5746 5746 5746 5746 5746 5746 5746 5746 5746 5746 5746 5746 5746 5746 5746 5745 5745 5745 5745 5745 5745 5744 5744 5744 5744 5745 5745 5745 5745
5757 5753 5750 5747 5744 5742 5740 5739 5738 5736 5735 5735 5735 5735 5735 5735 5735 5735 5736 5736 5736 5737 5738 5738 5739 5739 5739 5739 5739 5739 5740 5740 5740 5740 5740 5740 5740 5740 5740 5740 5741 5741 5741
5744 5741 5737 5734 5731 5728 5726 5724 5723 5722 5722 5721 5721 5721 5722 5722 5723 5723 5724 5725 5726 5727 5728 5729 5730 5731 5731 5732 5732 5732 5733 5733 5734 5734 5734 5734 5734 5735 5735 5735 5735 5735 5736
5731 5727 5723 5720 5717 5714 5711 5709 5708 5707 5706 5706 5706 5706 5707 5708 5709 5710 5711 5712 5714 5716 5717 5719 5720 5721 5722 5723 5724 5724 5725 5726 5727 5727 5728 5728 5728 5729 5729 5729 5729 5729 5730
5716 5712 5708 5704 5701 5698 5695 5693 5691 5690 5690 5690 5689 5690 5690 5691 5693 5695 5697 5699 5701 5703 5705 5707 5709 5710 5712 5714 5715 5715 5716 5717 5718 5719 5720 5721 5722 5722 5723 5723 5723 5723 5723
5701 5697 5692 5688 5684 5681 5678 5676 5674 5672 5672 5672 5672 5673 5673 5675 5676 5679 5681 5684 5687 5689 5692 5694 5697 5699 5701 5702 5704 5706 5707 5708 5709 5711 5712 5713 5714 5715 5715 5716 5716 5716 5716